Zurück zum Katalog

INMARSAT 3-F5

AktivKommunikationGEO
NORAD 25153·PAYLOAD·🇮🇲 IM

Gestartet Feb 4, 1998 von Guiana Space Centre

Loading…

TLE

AktuellSource: Space-Track

Epoche: Sep 14, 2026, 20:47 UTC

1 25153U 98006B   26257.86615623 -.00000297  00000-0  00000-0 0  9997
2 25153   9.8895  52.3381 0004377 119.1496  80.1903  1.00274710104795

Verfolge INMARSAT 3-F5 in Echtzeit mit AllMySat

Download on the App Store